This is the latest recevied weather packets stored in our database for station/object DL9NEE-10. If no packets are shown the sender has not sent any weather packets the latest 10 day(s).
| Time | Temp. | Humidity | Pressure | Rain* | Wind** | Luminosity | Snow |
|---|---|---|---|---|---|---|---|
| 1777841649 | 21.67° C | 42% | 1014.3 hPa | - | - | - | - |
| 1777840749 | 22.22° C | 42% | 1014.1 hPa | - | - | - | - |
| 1777839849 | 22.22° C | 42% | 1014 hPa | - | - | - | - |
| 1777838949 | 22.78° C | 41% | 1013.8 hPa | - | - | - | - |
| 1777838048 | 23.33° C | 40% | 1013.7 hPa | - | - | - | - |
| 1777837148 | 23.89° C | 40% | 1013.6 hPa | - | - | - | - |
| 1777836248 | 23.89° C | 39% | 1013.7 hPa | - | - | - | - |
| 1777835347 | 24.44° C | 38% | 1013.5 hPa | - | - | - | - |
| 1777834447 | 25° C | 37% | 1013.4 hPa | - | - | - | - |
| 1777833547 | 25° C | 37% | 1013.4 hPa | - | - | - | - |
| 1777832647 | 25.56° C | 36% | 1013.2 hPa | - | - | - | - |
| 1777831747 | 26.11° C | 36% | 1013.1 hPa | - | - | - | - |
| 1777830847 | 26.67° C | 35% | 1013 hPa | - | - | - | - |
| 1777829947 | 27.22° C | 34% | 1013 hPa | - | - | - | - |
| 1777829046 | 27.22° C | 34% | 1012.9 hPa | - | - | - | - |
| 1777828146 | 27.78° C | 33% | 1012.9 hPa | - | - | - | - |
| 1777827246 | 27.78° C | 33% | 1012.8 hPa | - | - | - | - |
| 1777826346 | 27.78° C | 32% | 1012.8 hPa | - | - | - | - |
| 1777825446 | 28.33° C | 32% | 1012.9 hPa | - | - | - | - |
| 1777824546 | 28.89° C | 31% | 1012.9 hPa | - | - | - | - |
| 1777823646 | 29.44° C | 30% | 1012.8 hPa | - | - | - | - |
| 1777822746 | 30.56° C | 29% | 1012.7 hPa | - | - | - | - |
| 1777821845 | 31.11° C | 28% | 1012.6 hPa | - | - | - | - |
| 1777820945 | 32.78° C | 28% | 1012.6 hPa | - | - | - | - |
| 1777820045 | 33.33° C | 28% | 1012.7 hPa | - | - | - | - |
* Rain since midnight (hover to see other rain measurements)
** Current wind speed in m/s (hover to see current wind gust speed)